When you browse on this site, cookies collect data to enhance your experience and personalize the content and advertising you see.
Visit our Privacy Policy to learn more. By continuing to use the site, you agree to this use of cookies and data.
  • In United Kingdom
  • List of Countries
  • For 7 days
  • Water Temperature
  • Satellite Maps
  • Weather Map
  • Weather Widgets
  • user-avatar
    Login

    Hourly Weather Łapy

    Today, 16 June, Sunday

    Time Temperature Precipitation Wind Pressure Humidity
    00:00 +21°C° 1.4 mm 4 mps 749 mmHg 91%
    01:00 +21°C° 1.4 mm 4 mps 749 mmHg 92%
    02:00 +21°C° 1.4 mm 4 mps 749 mmHg 94%
    03:00 +20°C° 1.5 mm 5 mps 748 mmHg 95%
    04:00 +20°C° 1.5 mm 5 mps 748 mmHg 95%
    05:00 +20°C° 1.5 mm 5 mps 748 mmHg 95%
    06:00 +21°C° 0.6 mm 5 mps 748 mmHg 94%
    07:00 +22°C° 0.6 mm 4 mps 748 mmHg 92%
    08:00 +24°C° 0.6 mm 3 mps 748 mmHg 91%
    09:00 +25°C° 0 mm 3 mps 748 mmHg 88%
    10:00 +25°C° 0 mm 3 mps 748 mmHg 85%
    11:00 +26°C° 0 mm 3 mps 748 mmHg 82%
    12:00 +27°C° 0 mm 4 mps 748 mmHg 78%
    13:00 +27°C° 0 mm 4 mps 749 mmHg 75%
    14:00 +28°C° 0 mm 5 mps 749 mmHg 71%
    15:00 +27°C° 0.1 mm 5 mps 749 mmHg 72%
    16:00 +27°C° 0.1 mm 5 mps 749 mmHg 74%
    17:00 +26°C° 0.1 mm 6 mps 749 mmHg 75%
    18:00 +23°C° 0 mm 5 mps 749 mmHg 79%
    19:00 +22°C° 0 mm 4 mps 749 mmHg 82%
    20:00 +21°C° 0 mm 3 mps 749 mmHg 85%
    21:00 +20°C° 0 mm 3 mps 750 mmHg 88%
    22:00 +19°C° 0 mm 3 mps 750 mmHg 91%
    23:00 +18°C° 0 mm 3 mps 750 mmHg 94%

    Tomorrow, 17 June, Monday

    Time Temperature Precipitation Wind Pressure Humidity
    00:00 +18°C° 0 mm 4 mps 751 mmHg 93%
    01:00 +18°C° 0 mm 4 mps 751 mmHg 92%
    02:00 +17°C° 0 mm 4 mps 751 mmHg 91%
    03:00 +17°C° 0 mm 4 mps 751 mmHg 90%
    04:00 +17°C° 0 mm 4 mps 751 mmHg 89%
    05:00 +17°C° 0 mm 4 mps 751 mmHg 89%
    06:00 +17°C° 0 mm 4 mps 751 mmHg 87%
    07:00 +18°C° 0 mm 4 mps 751 mmHg 85%
    08:00 +18°C° 0 mm 4 mps 752 mmHg 82%
    09:00 +18°C° 0 mm 4 mps 752 mmHg 83%
    10:00 +19°C° 0 mm 4 mps 752 mmHg 83%
    11:00 +19°C° 0 mm 5 mps 752 mmHg 84%
    12:00 +20°C° 0 mm 5 mps 752 mmHg 83%
    13:00 +20°C° 0 mm 5 mps 752 mmHg 82%
    14:00 +21°C° 0 mm 5 mps 752 mmHg 81%
    15:00 +21°C° 0 mm 5 mps 752 mmHg 80%
    16:00 +21°C° 0 mm 4 mps 752 mmHg 80%
    17:00 +21°C° 0 mm 4 mps 752 mmHg 80%
    18:00 +21°C° 0 mm 4 mps 753 mmHg 82%
    19:00 +20°C° 0 mm 3 mps 753 mmHg 85%
    20:00 +20°C° 0 mm 3 mps 753 mmHg 87%
    21:00 +19°C° 0 mm 3 mps 753 mmHg 90%
    22:00 +17°C° 0 mm 3 mps 753 mmHg 92%
    23:00 +16°C° 0 mm 3 mps 754 mmHg 94%

    Day after tomorrow, 18 June, Tuesday

    Time Temperature Precipitation Wind Pressure Humidity
    00:00 +14°C° 0 mm 3 mps 754 mmHg 93%
    01:00 +13°C° 0 mm 3 mps 754 mmHg 91%
    02:00 +12°C° 0 mm 3 mps 754 mmHg 90%
    03:00 +13°C° 0 mm 2 mps 754 mmHg 89%
    04:00 +13°C° 0 mm 2 mps 754 mmHg 89%
    05:00 +13°C° 0 mm 2 mps 754 mmHg 89%
    06:00 +15°C° 0 mm 2 mps 754 mmHg 84%
    07:00 +16°C° 0 mm 2 mps 755 mmHg 79%
    08:00 +18°C° 0 mm 2 mps 755 mmHg 75%
    09:00 +20°C° 0 mm 2 mps 755 mmHg 71%
    10:00 +21°C° 0 mm 2 mps 755 mmHg 68%
    11:00 +24°C° 0 mm 2 mps 755 mmHg 64%
    12:00 +24°C° 0 mm 2 mps 754 mmHg 61%
    13:00 +25°C° 0 mm 2 mps 754 mmHg 58%
    14:00 +26°C° 0 mm 2 mps 754 mmHg 55%
    15:00 +26°C° 0 mm 2 mps 753 mmHg 57%
    16:00 +26°C° 0 mm 2 mps 753 mmHg 59%
    17:00 +26°C° 0 mm 2 mps 753 mmHg 61%
    18:00 +25°C° 0 mm 2 mps 753 mmHg 67%
    19:00 +23°C° 0 mm 2 mps 752 mmHg 73%
    20:00 +21°C° 0 mm 2 mps 752 mmHg 80%
    21:00 +20°C° 0 mm 2 mps 753 mmHg 82%
    22:00 +18°C° 0 mm 2 mps 753 mmHg 84%
    23:00 +17°C° 0 mm 2 mps 753 mmHg 86%

    19 June, Wednesday

    Time Temperature Precipitation Wind Pressure Humidity
    00:00 +17°C° 0 mm 2 mps 753 mmHg 85%
    01:00 +16°C° 0 mm 2 mps 752 mmHg 84%
    02:00 +16°C° 0 mm 2 mps 752 mmHg 83%
    03:00 +16°C° 0 mm 2 mps 752 mmHg 83%
    04:00 +16°C° 0 mm 2 mps 752 mmHg 83%
    05:00 +16°C° 0 mm 2 mps 752 mmHg 83%
    06:00 +17°C° 0 mm 3 mps 752 mmHg 81%
    07:00 +19°C° 0 mm 3 mps 752 mmHg 78%
    08:00 +20°C° 0 mm 3 mps 752 mmHg 76%
    09:00 +22°C° 0 mm 3 mps 752 mmHg 74%
    10:00 +24°C° 0 mm 3 mps 751 mmHg 73%
    11:00 +26°C° 0 mm 4 mps 751 mmHg 71%
    12:00 +26°C° 0.5 mm 4 mps 751 mmHg 72%
    13:00 +26°C° 0.5 mm 4 mps 751 mmHg 73%
    14:00 +26°C° 0.5 mm 4 mps 750 mmHg 74%
    15:00 +26°C° 0.2 mm 4 mps 750 mmHg 74%
    16:00 +26°C° 0.2 mm 5 mps 749 mmHg 73%
    17:00 +25°C° 0.2 mm 5 mps 749 mmHg 73%
    18:00 +25°C° 0.1 mm 5 mps 749 mmHg 77%
    19:00 +23°C° 0.1 mm 5 mps 748 mmHg 81%
    20:00 +22°C° 0.1 mm 4 mps 748 mmHg 84%
    21:00 +21°C° 0.3 mm 4 mps 748 mmHg 87%
    22:00 +21°C° 0.3 mm 4 mps 748 mmHg 90%
    23:00 +20°C° 0.3 mm 4 mps 748 mmHg 92%

    20 June, Thursday

    Time Temperature Precipitation Wind Pressure Humidity
    00:00 +20°C° 0.7 mm 4 mps 748 mmHg 94%
    01:00 +20°C° 0.7 mm 3 mps 747 mmHg 95%
    02:00 +19°C° 0.7 mm 3 mps 747 mmHg 96%
    03:00 +19°C° 0 mm 3 mps 747 mmHg 96%
    04:00 +19°C° 0 mm 3 mps 747 mmHg 95%
    05:00 +20°C° 0 mm 3 mps 747 mmHg 95%
    06:00 +20°C° 0.1 mm 3 mps 747 mmHg 93%
    07:00 +21°C° 0.1 mm 3 mps 747 mmHg 92%
    08:00 +22°C° 0.1 mm 3 mps 747 mmHg 90%
    09:00 +24°C° 0 mm 3 mps 747 mmHg 85%
    10:00 +26°C° 0 mm 3 mps 747 mmHg 79%
    11:00 +27°C° 0 mm 3 mps 747 mmHg 73%
    12:00 +28°C° 1.2 mm 3 mps 747 mmHg 72%
    13:00 +28°C° 1.2 mm 3 mps 746 mmHg 71%
    14:00 +29°C° 1.2 mm 3 mps 746 mmHg 69%
    15:00 +29°C° 0.7 mm 2 mps 746 mmHg 70%
    16:00 +28°C° 0.7 mm 2 mps 746 mmHg 70%
    17:00 +28°C° 0.7 mm 2 mps 747 mmHg 70%
    18:00 +27°C° 0.7 mm 2 mps 747 mmHg 75%
    19:00 +26°C° 0.7 mm 1 mps 747 mmHg 80%
    20:00 +24°C° 0.7 mm 1 mps 747 mmHg 85%
    21:00 +24°C° 0.6 mm 1 mps 747 mmHg 86%
    22:00 +23°C° 0.6 mm 1 mps 747 mmHg 87%
    23:00 +22°C° 0.6 mm 1 mps 747 mmHg 88%

    21 June, Friday

    Time Temperature Precipitation Wind Pressure Humidity
    00:00 +22°C° 0.2 mm 1 mps 747 mmHg 89%
    01:00 +21°C° 0.2 mm 1 mps 748 mmHg 90%
    02:00 +21°C° 0.2 mm 1 mps 748 mmHg 91%
    03:00 +21°C° 0 mm 1 mps 748 mmHg 91%
    04:00 +21°C° 0 mm 1 mps 748 mmHg 91%
    05:00 +20°C° 0 mm 1 mps 748 mmHg 91%
    06:00 +20°C° 0 mm 0 mps 749 mmHg 87%
    07:00 +21°C° 0 mm 0 mps 749 mmHg 83%
    08:00 +23°C° 0 mm 0 mps 749 mmHg 79%
    09:00 +24°C° 0.2 mm 0 mps 749 mmHg 74%
    10:00 +25°C° 0.2 mm 0 mps 750 mmHg 69%
    11:00 +26°C° 0.2 mm 0 mps 750 mmHg 63%
    12:00 +27°C° 0 mm 0 mps 750 mmHg 60%
    13:00 +28°C° 0 mm 0 mps 750 mmHg 57%
    14:00 +30°C° 0 mm 1 mps 750 mmHg 53%
    15:00 +30°C° 0 mm 1 mps 750 mmHg 54%
    16:00 +30°C° 0 mm 1 mps 749 mmHg 55%
    17:00 +30°C° 0 mm 1 mps 749 mmHg 56%
    18:00 +28°C° 0.1 mm 1 mps 749 mmHg 63%
    19:00 +27°C° 0.1 mm 1 mps 749 mmHg 71%
    20:00 +25°C° 0.1 mm 2 mps 749 mmHg 78%
    21:00 +24°C° 0 mm 1 mps 749 mmHg 80%
    22:00 +23°C° 0 mm 1 mps 749 mmHg 82%
    23:00 +22°C° 0 mm 1 mps 750 mmHg 84%
    Show more